Wind_Speed
42 41 41 40 39 39 39 38 38 37 37 37 37 37 37 37 37 37 37 37 38 38 38 39 39 39 39 39 39 39 40 40 40 41 40 40 40 40
43 43 43 42 42 41 41 41 40 40 39 40 40 40 40 40 39 40 40 40 40 40 40 41 41 41 41 41 41 42 42 42 42 43 43 42 42 41
46 45 44 43 44 44 44 43 43 42 42 41 42 42 42 42 42 42 42 42 42 42 42 42 42 43 43 43 43 43 44 44 44 44 44 43 43 42
46 45 45 45 45 45 45 45 45 45 44 44 44 45 45 45 45 44 44 44 44 44 44 44 44 44 44 44 45 45 45 45 45 45 44 43 43 43
47 46 45 46 47 46 47 47 47 47 47 47 47 46 46 46 46 46 46 46 46 45 45 45 44 44 45 46 47 47 46 46 46 45 44 44 44 45
50 49 48 47 47 48 49 49 49 48 49 49 49 48 48 48 47 47 47 47 47 46 46 46 45 46 47 48 48 47 47 47 46 46 45 44 45 45
52 52 51 51 50 50 50 50 51 50 49 49 49 49 49 49 48 48 48 47 48 48 47 47 47 48 48 49 48 48 48 47 47 47 46 46 46 46
52 52 52 53 52 51 51 51 51 51 50 50 49 49 49 49 49 49 49 49 49 48 48 48 48 49 49 49 49 49 49 48 48 47 47 47 47 47
53 52 52 53 53 52 52 51 51 52 52 50 50 49 49 49 49 49 49 50 49 49 49 49 49 50 50 50 50 49 48 48 48 48 48 48 48 49
53 53 53 53 53 53 53 52 52 52 52 51 50 50 50 50 49 50 50 50 50 50 50 49 50 50 50 50 49 48 48 48 47 48 48 49 49 49
54 54 54 53 52 53 53 53 54 53 53 52 52 51 50 50 51 51 51 51 50 50 50 51 50 50 49 49 48 48 48 48 48 48 48 49 49 49
55 55 54 52 52 52 53 53 54 53 53 52 51 51 51 51 51 51 51 51 51 51 50 51 51 50 49 49 49 49 49 49 49 49 50 50 50 50
54 54 54 53 53 53 53 53 53 53 53 52 52 51 52 51 51 51 52 52 52 51 50 51 51 51 51 49 49 50 50 50 50 51 52 52 52 52
53 53 53 54 54 53 53 54 54 53 52 52 51 51 51 50 50 51 51 52 52 51 51 51 51 51 51 51 50 50 50 51 52 52 53 53 52 53
51 52 53 54 54 53 53 53 53 53 53 53 52 52 51 51 51 51 51 51 51 52 52 53 53 52 53 52 51 50 51 51 52 53 53 53 52 53
50 50 50 50 51 50 51 51 52 52 52 52 52 52 51 51 50 51 51 51 52 52 52 53 53 53 52 52 52 52 52 52 52 53 53 53 53 53
47 48 48 48 49 49 49 49 50 51 51 52 52 51 51 51 51 51 50 50 51 52 52 53 52 52 52 53 53 53 52 52 52 53 53 52 52 52
46 46 47 48 48 48 48 49 49 50 51 51 50 50 50 50 50 50 50 50 51 51 52 52 52 52 53 52 52 52 51 51 51 52 52 53 52 52
44 44 45 46 46 47 47 48 48 48 48 49 49 49 49 49 49 50 50 50 51 50 49 49 50 51 51 50 50 50 50 50 50 51 51 51 51 50
41 42 43 43 44 45 46 46 46 46 46 46 47 47 48 48 49 48 48 49 48 48 47 47 47 48 48 49 48 49 49 49 50 50 49 49 49 49
40 41 42 43 43 43 43 44 45 45 46 46 46 46 47 47 47 48 47 47 46 45 45 45 45 46 47 48 48 48 48 48 48 48 48 47 47 47
41 40 41 42 42 42 42 43 44 44 44 45 45 45 45 45 45 45 45 45 44 44 44 44 45 46 47 48 48 48 47 47 47 47 47 46 46 45
41 41 41 41 41 41 41 41 42 42 43 44 44 44 44 44 44 44 44 45 44 44 44 45 45 46 47 47 47 47 46 46 45 46 45 45 45 45
Wind_Direction
244 246 246 247 249 250 252 253 254 256 258 260 262 264 267 270 272 275 277 279 281 282 284 286 287 288 290 289 291 292 294 294 295 295 295 295 295 295
246 248 249 250 251 252 253 254 255 256 259 261 263 265 267 269 272 274 276 278 280 281 283 285 286 287 288 289 290 292 293 293 293 294 293 293 293 294
246 247 248 250 252 253 254 255 256 257 260 262 263 265 267 269 272 273 276 278 279 280 282 284 285 286 287 288 289 291 292 292 292 293 293 291 292 292
247 248 249 250 251 252 254 256 257 259 261 262 264 266 267 269 271 273 275 276 278 280 281 282 284 285 287 288 289 290 291 291 291 291 290 290 291 291
247 248 250 250 251 253 255 257 259 260 262 263 265 266 268 269 271 273 274 275 277 279 280 281 282 284 286 288 289 290 290 290 290 290 289 289 290 290
249 250 251 252 253 255 257 258 260 261 263 265 266 268 269 269 271 272 273 274 276 277 279 280 282 283 285 287 288 289 289 290 289 289 288 289 290 290
250 251 252 254 255 256 258 259 260 261 264 266 268 269 269 270 270 271 272 273 275 277 278 280 281 283 285 286 287 287 287 287 288 289 288 289 290 290
250 252 253 254 255 256 257 259 261 262 264 266 268 268 269 269 270 271 272 273 275 276 278 280 281 283 285 286 286 286 286 287 287 287 287 288 289 289
250 251 253 254 255 256 257 259 261 262 263 265 267 267 269 270 270 271 272 274 275 276 277 280 282 284 284 285 285 285 285 286 286 286 286 287 288 288
250 252 253 253 255 256 258 258 259 261 262 265 267 268 269 269 270 271 272 273 274 276 278 280 282 283 284 284 284 284 285 286 286 286 287 288 288 288
251 252 253 254 256 257 258 259 260 261 263 264 266 268 269 269 270 271 272 273 274 276 278 279 280 281 282 282 283 283 284 285 286 287 288 288 289 289
251 253 254 255 256 257 258 259 260 262 263 264 266 268 270 270 271 272 273 273 275 276 277 279 280 281 281 281 282 282 283 284 285 286 287 288 289 289
253 254 254 254 255 257 258 260 260 262 263 264 266 268 270 270 271 272 273 273 275 276 278 279 280 281 281 281 281 281 282 284 285 286 287 287 288 288
253 254 254 254 255 258 259 259 260 262 262 263 266 269 270 269 271 272 273 274 275 276 278 279 280 281 281 281 280 281 282 284 284 285 286 287 287 288
253 253 254 255 256 258 259 260 261 261 262 263 265 268 270 269 270 272 273 274 274 276 277 278 279 280 280 280 281 282 283 283 284 285 286 287 287 287
253 253 254 256 257 258 259 259 260 262 263 264 265 267 269 269 271 272 273 273 274 275 277 278 278 279 280 281 282 282 283 284 285 286 286 287 287 287
253 253 254 255 256 258 258 259 260 262 264 265 265 267 268 269 270 272 273 274 275 276 277 278 278 279 281 282 283 283 283 284 284 285 286 286 287 287
255 255 256 257 258 259 259 260 262 264 264 265 265 267 269 270 271 273 274 274 276 277 278 278 278 279 280 281 282 283 283 284 284 285 285 286 287 288
257 257 257 257 259 260 262 262 264 265 265 265 266 268 269 270 271 273 274 275 277 278 279 279 279 279 279 280 282 283 285 284 284 285 286 287 287 288
256 257 258 260 261 262 263 263 264 265 266 266 267 268 269 270 271 272 274 275 277 278 278 278 279 280 281 282 283 284 284 285 285 285 286 286 286 287
258 259 260 261 262 264 265 265 265 265 266 266 267 269 270 271 271 272 273 274 276 277 277 277 279 281 282 284 284 284 285 285 285 286 285 285 286 287
258 260 261 262 263 265 265 265 265 266 265 266 267 269 271 272 272 272 272 274 275 276 277 278 280 282 283 284 286 286 286 286 286 287 287 287 288 288
258 259 260 261 263 264 264 264 265 266 266 267 268 270 271 272 272 272 273 274 275 276 277 279 280 282 284 285 286 287 286 286 286 287 287 288 289 291
Height
5743 5746 5750 5754 5757 5760 5762 5765 5767 5769 5771 5772 5773 5774 5774 5775 5775 5775 5775 5774 5773 5772 5771 5770 5768 5767 5765 5763 5761 5758 5755 5753 5750 5747 5744 5741 5738 5736
5733 5737 5740 5744 5747 5749 5752 5755 5757 5759 5761 5763 5763 5764 5765 5765 5765 5765 5765 5764 5763 5762 5761 5760 5758 5756 5754 5752 5750 5748 5745 5742 5739 5736 5733 5730 5728 5725
5723 5726 5730 5733 5736 5738 5741 5744 5746 5748 5750 5752 5753 5753 5754 5754 5754 5754 5754 5753 5752 5751 5750 5749 5747 5745 5743 5741 5739 5737 5734 5731 5728 5725 5722 5719 5716 5713
5712 5716 5719 5722 5725 5727 5730 5732 5735 5737 5739 5740 5741 5742 5743 5743 5743 5742 5742 5742 5741 5740 5739 5737 5736 5734 5732 5730 5727 5725 5722 5719 5716 5713 5710 5708 5705 5702
5701 5705 5708 5711 5713 5716 5718 5721 5723 5725 5727 5728 5729 5730 5731 5731 5731 5731 5730 5730 5729 5728 5727 5725 5724 5722 5720 5718 5715 5713 5710 5707 5704 5701 5699 5696 5693 5691
5690 5693 5696 5699 5702 5704 5707 5709 5711 5713 5714 5715 5717 5718 5718 5718 5718 5719 5719 5718 5717 5716 5715 5713 5712 5710 5708 5706 5703 5700 5698 5695 5692 5689 5687 5684 5682 5679
5677 5681 5684 5687 5690 5692 5694 5696 5698 5700 5702 5703 5704 5705 5705 5705 5706 5706 5706 5705 5705 5704 5703 5702 5700 5698 5695 5693 5690 5688 5685 5682 5680 5677 5675 5672 5670 5667
5665 5668 5671 5674 5677 5679 5681 5684 5686 5687 5689 5690 5691 5692 5692 5693 5693 5692 5693 5693 5693 5693 5690 5689 5687 5685 5683 5680 5677 5675 5672 5669 5667 5665 5662 5660 5657 5655
5651 5654 5658 5661 5663 5666 5668 5670 5672 5673 5675 5677 5678 5679 5679 5680 5680 5680 5679 5679 5679 5679 5677 5676 5674 5672 5669 5667 5664 5661 5659 5656 5653 5651 5649 5646 5644 5641
5637 5641 5644 5647 5650 5652 5654 5656 5658 5660 5662 5663 5665 5666 5665 5666 5665 5666 5665 5665 5666 5665 5663 5663 5661 5659 5656 5653 5650 5648 5646 5643 5640 5638 5635 5632 5630 5627
5624 5627 5630 5633 5637 5638 5640 5643 5645 5647 5648 5649 5650 5651 5651 5652 5652 5651 5651 5651 5652 5652 5650 5648 5647 5645 5643 5640 5638 5635 5633 5630 5628 5625 5622 5619 5616 5613
5610 5613 5617 5619 5622 5623 5626 5628 5631 5633 5634 5635 5636 5637 5637 5638 5637 5637 5637 5637 5637 5638 5636 5634 5633 5630 5629 5628 5625 5622 5619 5617 5615 5612 5609 5606 5602 5599
5595 5599 5602 5605 5607 5609 5612 5614 5616 5618 5620 5621 5623 5623 5624 5624 5623 5623 5622 5622 5622 5622 5622 5619 5618 5616 5614 5614 5612 5609 5606 5603 5601 5599 5596 5592 5589 5585
5581 5585 5588 5591 5593 5595 5597 5599 5602 5603 5605 5607 5608 5609 5609 5610 5609 5608 5608 5607 5607 5607 5606 5604 5603 5601 5599 5598 5597 5595 5592 5589 5587 5584 5581 5578 5575 5571
5567 5570 5574 5576 5579 5581 5583 5585 5587 5588 5590 5592 5593 5594 5595 5595 5594 5594 5593 5593 5592 5592 5591 5589 5587 5586 5583 5582 5582 5580 5578 5575 5572 5569 5567 5563 5560 5557
5553 5557 5560 5562 5565 5567 5569 5571 5572 5574 5575 5577 5578 5579 5579 5579 5579 5579 5579 5578 5578 5577 5576 5574 5572 5570 5569 5567 5566 5565 5562 5560 5558 5554 5551 5548 5545 5542
5541 5544 5547 5549 5551 5553 5555 5557 5558 5560 5561 5562 5563 5563 5564 5565 5565 5564 5564 5563 5563 5563 5562 5560 5557 5555 5553 5552 5550 5549 5547 5545 5542 5539 5536 5533 5531 5527
5530 5532 5534 5536 5538 5540 5542 5543 5544 5545 5546 5547 5548 5549 5549 5550 5550 5550 5549 5549 5548 5548 5546 5545 5543 5541 5539 5538 5536 5534 5532 5530 5527 5524 5521 5518 5516 5513
5518 5520 5521 5523 5525 5526 5528 5529 5530 5531 5532 5532 5533 5534 5535 5535 5535 5535 5535 5534 5533 5533 5531 5530 5528 5526 5525 5525 5524 5520 5517 5515 5512 5510 5506 5503 5501 5499
5506 5508 5509 5510 5512 5513 5514 5515 5516 5517 5518 5519 5520 5520 5521 5521 5521 5521 5521 5520 5519 5518 5517 5516 5514 5512 5511 5510 5509 5506 5502 5500 5497 5495 5492 5489 5487 5484
5494 5496 5497 5498 5499 5500 5501 5502 5503 5504 5505 5505 5506 5507 5507 5507 5507 5507 5506 5506 5505 5504 5504 5503 5501 5499 5497 5495 5493 5492 5490 5486 5482 5480 5478 5476 5474 5471
5483 5484 5485 5486 5487 5487 5488 5488 5489 5490 5491 5492 5492 5493 5493 5493 5493 5493 5493 5493 5492 5492 5491 5490 5488 5486 5483 5481 5479 5478 5476 5473 5469 5466 5463 5462 5459 5458
5470 5472 5473 5473 5474 5475 5475 5476 5477 5477 5478 5479 5479 5479 5480 5480 5480 5480 5480 5479 5479 5478 5478 5477 5475 5473 5470 5468 5466 5464 5461 5459 5456 5453 5450 5448 5446 5443